Regional Weather Roundup
Issued by NWS Little Rock, AR

Home | Current Version | Previous Version | Text Only | Print | Product List | Glossary Off
Versions: 1 2 3 4 5 6 7 8 9 10 11 12 13 14 15 16 17 18 19 20 21 22 23 24 25 26 27 28 29 30 31 32 33 34 35 36 37 38 39 40 41 42 43 44 45 46 47 48 49 50

000
ASUS44 KLZK 021705
RWRLZK

WEATHER ROUNDUP FOR ARKANSAS
NATIONAL WEATHER SERVICE LITTLE ROCK AR
1200 PM CDT MON MAY 02 2016

NOTE: "FAIR" INDICATES FEW OR NO CLOUDS BELOW 12,000 FEET WITH NO
SIGNIFICANT WEATHER AND/OR OBSTRUCTIONS TO VISIBILITY.

ARZ001-003-010-029-021800-
NORTHWEST ARKANSAS

CITY           SKY/WX    TMP DP  RH WIND       PRES   REMARKS
FAYETTEVILLE   CLOUDY    56  50  80 E5        30.11S
FORT SMITH     CLOUDY    62  49  62 N8        30.10S
HARRISON       CLOUDY    54  47  77 CALM      30.11R
BENTONVILLE    CLOUDY    55  45  67 CALM      30.12R
ROGERS         CLOUDY    56  48  74 NW3       30.11S
SILOAM SPGS    CLOUDY    55  43  62 N8        30.13R
HIGHFILL       CLOUDY    56  49  77 NW6       30.11R
SPRINGDALE     CLOUDY    57  46  67 CALM      30.13R
$$

ARZ004-005-016-021800-
NORTH CENTRAL ARKANSAS

CITY           SKY/WX    TMP DP  RH WIND       PRES   REMARKS
BATESVILLE     CLOUDY    64  48  55 W7        30.07R
FLIPPIN        CLOUDY   N/A N/A N/A NW8       30.06S
MTN HOME       CLOUDY    60  48  64 VRB7      30.07R
$$

ARZ040-041-021800-
WEST CENTRAL ARKANSAS

CITY           SKY/WX    TMP DP  RH WIND       PRES   REMARKS
MENA           PTSUNNY   61  54  77 W5        30.09F
MOUNT IDA      PTSUNNY   61  51  70 NW3       30.06R
$$

ARZ009-017-025-026-028-021800-
NORTHEAST ARKANSAS

CITY           SKY/WX    TMP DP  RH WIND       PRES   REMARKS
CORNING          N/A     63  50  63 E6        30.05S
JONESBORO      PTSUNNY   66  53  63 E9        30.04S
NEWPORT        MOSUNNY   64  53  67 NE6       30.07R
WALNUT RIDGE   CLOUDY    64  50  59 N7        30.06R
BLYTHEVILLE    CLOUDY    63  56  78 NE9       30.03F
NW BLYTHEVILLE CLOUDY    63  55  77 NE7       30.03F
$$

ARZ022-023-033-042-044-021800-
CENTRAL ARKANSAS

CITY           SKY/WX    TMP DP  RH WIND       PRES   REMARKS
LITTLE ROCK    CLOUDY    66  52  60 E6        30.07F
N LITTLE ROCK    N/A     64  55  72 E3        30.06F
SEARCY         PTSUNNY   64  54  68 VRB5      30.07F
HOT SPRINGS    LGT RAIN  63  52  67 N3        30.08R
RUSSELLVILLE   PTSUNNY   63  50  62 VRB3      30.07F
$$

ARZ036-021800-
EAST ARKANSAS

CITY           SKY/WX    TMP DP  RH WIND       PRES   REMARKS
WEST MEMPHIS   CLOUDY    64  58  80 NE8       30.01F
$$

ARZ050-053-066-070-073-021800-
SOUTHWEST ARKANSAS

CITY           SKY/WX    TMP DP  RH WIND       PRES   REMARKS
ARKADELPHIA    PTSUNNY   62  59  90 CALM      30.10S
CAMDEN         CLOUDY    63  55  77 N3        30.08F
TEXARKANA      CLOUDY    62  56  80 NE10      30.04F
EL DORADO      LGT RAIN  58  57  97 NW6       30.09R
DE QUEEN       CLOUDY    60  57  89 N5        30.07F
$$

ARZ056-057-069-021800-
SOUTHEAST ARKANSAS

CITY           SKY/WX    TMP DP  RH WIND       PRES   REMARKS
PINE BLUFF     CLOUDY    61  54  77 N8        30.08R
STUTTGART      CLOUDY    63  54  72 N9        30.08R
MONTICELLO     LGT RAIN  59  57  93 NW6       30.07S

$$





USA.gov is the U.S. government's official web portal to all federal, state and local government web resources and services.